Date String (YYYY-MM-DD hh:mm:ss) UTC,Instrument flags,Ambient pressure (hPa),Sample flow (lpm),Bypass flow (lpm),Sample temperature (°C),Ambient temperature (°C),ASC tube jacket temperature (°C),LED temperature (°C),Box temperature (°C),Sample RH (%),Span deviation,Mass concentration (μg/m³),Mass concentration (μg/m³),Mass concentration (μg/m³)
DateTimeUTC,F1_M11,P_M11,Q1_M11,Q2_M11,T1_M11,T2_M11,T3_M11,T4_M11,T5_M11,U1_M11,ZSPAN_M11,X0_M11,X2_M11,X1_M11
2022-11-18 21:00:00,,0829.2,5.00,0.00,24.5,23.3,00.0,33.3,26.4,07.3,0000.0,0011.44,0008.80,0008.35
2022-11-18 21:01:00,,0829.3,5.00,0.00,24.5,23.3,00.0,33.3,26.4,07.3,0000.0,0011.39,0008.79,0008.36
2022-11-18 21:02:00,,0829.3,5.00,0.00,24.5,23.3,00.0,33.4,26.4,07.3,0000.0,0011.64,0008.83,0008.38
2022-11-18 21:03:00,,0829.3,5.00,0.00,24.5,23.3,00.0,33.4,26.3,07.3,0000.0,0012.08,0008.90,0008.42
2022-11-18 21:04:00,,0829.3,4.99,0.00,24.5,23.3,00.0,33.4,26.4,07.4,0000.0,0011.97,0008.88,0008.44
2022-11-18 21:05:00,,0829.3,4.99,0.00,24.5,23.3,00.0,33.4,26.4,07.4,0000.0,0012.02,0008.91,0008.44
2022-11-18 21:06:00,,0829.4,5.02,0.00,24.5,23.3,00.0,33.4,26.4,07.4,0000.0,0012.20,0009.00,0008.51
2022-11-18 21:07:00,,0829.3,5.00,0.00,24.6,23.3,00.0,33.4,26.4,07.4,0000.0,0012.36,0009.10,0008.59
2022-11-18 21:08:00,,0829.0,5.00,0.00,24.6,23.3,00.0,33.4,26.4,07.4,0000.0,0012.48,0009.19,0008.69
2022-11-18 21:09:00,,0829.1,5.00,0.00,24.5,23.3,00.0,33.4,26.4,07.4,0000.0,0012.59,0009.27,0008.78
2022-11-18 21:10:00,,0828.8,5.00,0.00,24.6,23.3,00.0,33.4,26.4,07.4,0000.0,0012.77,0009.36,0008.86
2022-11-18 21:11:00,,0828.8,5.00,0.00,24.6,23.3,00.0,33.4,26.4,07.4,0000.0,0012.94,0009.48,0008.95
2022-11-18 21:12:00,,0828.7,4.99,0.00,24.6,23.3,00.0,33.4,26.4,07.4,0000.0,0013.08,0009.57,0009.04
2022-11-18 21:13:00,,0828.7,5.00,0.00,24.6,23.3,00.0,33.4,26.4,07.4,0000.0,0013.03,0009.64,0009.12
2022-11-18 21:14:00,,0828.9,5.00,0.00,24.6,23.3,00.0,33.4,26.4,07.4,0000.0,0012.72,0009.70,0009.20
2022-11-18 21:15:00,,0829.1,5.00,0.00,24.6,23.3,00.0,33.4,26.4,07.4,0000.3,0012.92,0009.81,0009.28
2022-11-18 21:16:00,,0828.6,5.00,0.00,24.6,23.3,00.0,33.4,26.5,07.4,0001.8,0013.07,0009.88,0009.38
2022-11-18 21:17:00,,0828.7,5.00,0.00,24.6,23.3,00.0,33.4,26.5,07.4,0001.2,0013.08,0009.88,0009.39
2022-11-18 21:18:00,,0828.7,5.00,0.00,24.6,23.3,00.0,33.4,26.5,07.4,0000.0,0013.06,0009.88,0009.39
2022-11-18 21:19:00,,0828.7,5.00,0.00,24.6,23.3,00.0,33.4,26.5,07.4,0000.0,0013.15,0009.87,0009.37
2022-11-18 21:20:00,,0828.7,4.98,0.00,24.6,23.3,00.0,33.5,26.5,07.4,0000.0,0013.08,0009.83,0009.34
2022-11-18 21:21:00,,0829.0,5.01,0.00,24.6,23.3,00.0,33.5,26.5,07.4,0000.0,0012.98,0009.79,0009.31
2022-11-18 21:22:00,,0829.1,5.01,0.00,24.6,23.4,00.0,33.5,26.5,07.4,0000.0,0013.02,0009.78,0009.28
2022-11-18 21:23:00,,0828.9,4.98,0.00,24.6,23.4,00.0,33.5,26.5,07.5,0000.0,0013.08,0009.77,0009.27
2022-11-18 21:24:00,,0828.8,5.01,0.00,24.6,23.4,00.0,33.5,26.5,07.5,0000.0,0012.96,0009.75,0009.26
2022-11-18 21:25:00,,0829.0,5.01,0.00,24.6,23.4,00.0,33.5,26.5,07.5,0000.0,0012.90,0009.71,0009.24
2022-11-18 21:26:00,,0828.9,5.00,0.00,24.7,23.4,00.0,33.5,26.6,07.5,0000.0,0012.87,0009.70,0009.23
2022-11-18 21:27:00,,0828.8,5.00,0.00,24.7,23.4,00.0,33.5,26.6,07.5,0000.0,0012.78,0009.71,0009.23
2022-11-18 21:28:00,,0829.0,5.02,0.00,24.7,23.4,00.0,33.5,26.5,07.5,0000.0,0012.85,0009.72,0009.23
2022-11-18 21:29:00,,0828.9,5.01,0.00,24.7,23.4,00.0,33.5,26.5,07.5,0000.0,0012.95,0009.74,0009.23
2022-11-18 21:30:00,,0828.8,5.00,0.00,24.7,23.4,00.0,33.5,26.6,07.5,0000.0,0012.95,0009.75,0009.24
2022-11-18 21:31:00,,0828.5,4.98,0.00,24.7,23.4,00.0,33.5,26.6,07.5,0000.0,0012.93,0009.78,0009.26
2022-11-18 21:32:00,,0828.6,5.00,0.00,24.7,23.4,00.0,33.5,26.5,07.5,0003.2,0013.03,0009.82,0009.29
2022-11-18 21:33:00,,0828.5,5.01,0.00,24.7,23.4,00.0,33.5,26.6,07.6,0002.8,0013.52,0009.80,0009.31
2022-11-18 21:34:00,,0828.5,5.01,0.00,24.7,23.4,00.0,33.5,26.6,07.6,0002.7,0013.45,0009.80,0009.31
2022-11-18 21:35:00,,0828.5,4.98,0.00,24.7,23.4,00.0,33.5,26.6,07.6,0002.4,0013.40,0009.78,0009.31
2022-11-18 21:36:00,,0828.5,5.01,0.00,24.7,23.4,00.0,33.5,26.6,07.6,0001.1,0013.37,0009.77,0009.31
2022-11-18 21:37:00,,0828.5,5.00,0.00,24.7,23.4,00.0,33.5,26.6,07.5,0000.7,0013.30,0009.71,0009.24
2022-11-18 21:38:00,,0828.4,5.00,0.00,24.7,23.4,00.0,33.6,26.6,07.6,0000.8,0013.12,0009.59,0009.13
2022-11-18 21:39:00,,0828.4,5.01,0.00,24.7,23.4,00.0,33.6,26.6,07.6,0000.0,0012.84,0009.47,0009.03
2022-11-18 21:40:00,,0828.4,4.99,0.00,24.7,23.4,00.0,33.6,26.6,07.6,0000.0,0012.60,0009.34,0008.93
2022-11-18 21:41:00,,0828.4,5.01,0.00,24.7,23.4,00.0,33.6,26.7,07.5,0000.0,0012.40,0009.23,0008.83
2022-11-18 21:42:00,,0828.4,5.01,0.00,24.7,23.4,00.0,33.6,26.7,07.4,0000.0,0012.28,0009.13,0008.73
2022-11-18 21:43:00,,0828.4,5.00,0.00,24.7,23.4,00.0,33.6,26.7,07.4,0000.0,0012.20,0009.02,0008.61
2022-11-18 21:44:00,,0828.3,4.99,0.00,24.7,23.5,00.0,33.6,26.7,07.4,0000.0,0011.74,0008.95,0008.51
2022-11-18 21:45:00,,0828.3,5.01,0.00,24.7,23.5,00.0,33.6,26.7,07.4,0000.0,0011.58,0008.83,0008.40
2022-11-18 21:46:00,,0828.3,5.01,0.00,24.7,23.5,00.0,33.6,26.7,07.4,0000.0,0011.55,0008.74,0008.27
2022-11-18 21:47:00,,0828.3,4.99,0.00,24.7,23.5,00.0,33.6,26.7,07.4,0000.0,0011.82,0008.68,0008.17
2022-11-18 21:48:00,,0828.3,5.00,0.00,24.7,23.5,00.0,33.6,26.7,07.4,0000.0,0012.23,0008.64,0008.11
2022-11-18 21:49:00,,0828.3,5.00,0.00,24.7,23.5,00.0,33.6,26.7,07.3,0000.0,0012.16,0008.60,0008.09
2022-11-18 21:50:00,,0828.2,5.01,0.00,24.7,23.5,00.0,33.6,26.7,07.4,0000.0,0012.19,0008.60,0008.08
2022-11-18 21:51:00,,0828.2,4.98,0.00,24.7,23.5,00.0,33.6,26.7,07.4,0000.0,0012.22,0008.58,0008.05
2022-11-18 21:52:00,,0828.2,5.01,0.00,24.7,23.5,00.0,33.6,26.7,07.4,0000.0,0012.42,0008.56,0008.02
2022-11-18 21:53:00,,0828.2,5.01,0.00,24.7,23.5,00.0,33.6,26.7,07.4,0000.0,0012.46,0008.56,0008.01
2022-11-18 21:54:00,,0828.3,4.98,0.00,24.7,23.5,00.0,33.6,26.7,07.4,0000.0,0012.42,0008.55,0008.00
2022-11-18 21:55:00,,0828.2,5.01,0.00,24.8,23.5,00.0,33.6,26.7,07.4,0000.0,0012.12,0008.51,0007.98
2022-11-18 21:56:00,,0828.3,5.01,0.00,24.8,23.5,00.0,33.6,26.8,07.4,0000.0,0012.11,0008.51,0007.97
2022-11-18 21:57:00,,0828.3,5.00,0.00,24.8,23.5,00.0,33.6,26.8,07.5,0000.0,0012.09,0008.51,0007.96
2022-11-18 21:58:00,,0828.2,4.99,0.00,24.8,23.5,00.0,33.6,26.7,07.4,0000.0,0012.00,0008.49,0007.95
2022-11-18 21:59:00,,0828.2,4.99,0.00,24.8,23.5,00.0,33.6,26.7,07.5,0000.0,0011.90,0008.47,0007.93
